Time,TemperatureF,DewpointF,PressureIn,WindDirection,WindDirectionDegrees,WindSpeedMPH,WindSpeedGustMPH,Humidity,HourlyPrecipIn,Conditions,Clouds,dailyrainin,SoftwareType,DateUTC
2013-06-28 00:01:00,73.0,61.0,29.71,West,268,2.0,5.0,66,0.00,,,0.00,,2013-06-28 05:01:00,
2013-06-28 00:11:00,73.0,62.0,29.72,WSW,253,0.0,3.0,68,0.00,,,0.00,,2013-06-28 05:11:00,
2013-06-28 00:22:00,73.0,62.0,29.72,WSW,253,0.0,3.0,68,0.00,,,0.00,,2013-06-28 05:22:00,
2013-06-28 00:33:00,72.0,62.0,29.72,West,259,2.0,5.0,70,0.00,,,0.00,,2013-06-28 05:33:00,
2013-06-28 00:43:00,71.0,62.0,29.72,West,259,1.0,4.0,72,0.00,,,0.00,,2013-06-28 05:43:00,
2013-06-28 00:53:00,71.0,62.0,29.72,West,259,1.0,4.0,72,0.00,,,0.00,,2013-06-28 05:53:00,
2013-06-28 01:02:00,71.0,61.0,29.72,West,271,2.0,7.0,71,0.00,,,0.00,,2013-06-28 06:02:00,
2013-06-28 01:12:00,71.0,61.0,29.71,WSW,252,3.0,6.0,70,0.00,,,0.00,,2013-06-28 06:12:00,
2013-06-28 01:22:00,71.0,61.0,29.71,WSW,252,3.0,6.0,70,0.00,,,0.00,,2013-06-28 06:22:00,
2013-06-28 01:33:00,70.0,61.0,29.71,WSW,252,2.0,6.0,72,0.00,,,0.00,,2013-06-28 06:33:00,
2013-06-28 01:42:00,70.0,61.0,29.70,WNW,293,2.0,7.0,72,0.00,,,0.00,,2013-06-28 06:42:00,
2013-06-28 01:52:00,70.0,61.0,29.70,WNW,293,2.0,7.0,72,0.00,,,0.00,,2013-06-28 06:52:00,
2013-06-28 02:01:00,70.0,61.0,29.70,WSW,256,2.0,5.0,72,0.00,,,0.00,,2013-06-28 07:01:00,
2013-06-28 02:11:00,70.0,60.0,29.69,WNW,289,2.0,5.0,71,0.00,,,0.00,,2013-06-28 07:11:00,
2013-06-28 02:22:00,70.0,60.0,29.69,WNW,289,2.0,5.0,71,0.00,,,0.00,,2013-06-28 07:22:00,
2013-06-28 02:33:00,70.0,60.0,29.69,West,266,2.0,5.0,71,0.00,,,0.00,,2013-06-28 07:33:00,
2013-06-28 02:43:00,69.0,60.0,29.69,WNW,290,2.0,4.0,72,0.00,,,0.00,,2013-06-28 07:43:00,
2013-06-28 02:52:00,69.0,60.0,29.69,WNW,290,2.0,4.0,72,0.00,,,0.00,,2013-06-28 07:52:00,
2013-06-28 03:01:00,69.0,60.0,29.68,WNW,282,2.0,6.0,73,0.00,,,0.00,,2013-06-28 08:01:00,
2013-06-28 03:11:00,69.0,60.0,29.69,WSW,250,2.0,6.0,73,0.00,,,0.00,,2013-06-28 08:11:00,
2013-06-28 03:22:00,69.0,60.0,29.69,WSW,250,2.0,6.0,73,0.00,,,0.00,,2013-06-28 08:22:00,
2013-06-28 03:33:00,68.0,59.0,29.68,NW,325,2.0,6.0,74,0.00,,,0.00,,2013-06-28 08:33:00,
2013-06-28 03:43:00,68.0,60.0,29.68,WSW,250,0.0,4.0,76,0.00,,,0.00,,2013-06-28 08:43:00,
2013-06-28 03:52:00,68.0,60.0,29.68,WSW,250,0.0,4.0,76,0.00,,,0.00,,2013-06-28 08:52:00,
2013-06-28 04:02:00,67.0,60.0,29.68,WSW,251,0.0,2.0,77,0.00,,,0.00,,2013-06-28 09:02:00,
2013-06-28 04:11:00,67.0,60.0,29.67,WSW,251,0.0,2.0,78,0.00,,,0.00,,2013-06-28 09:11:00,
2013-06-28 04:22:00,67.0,60.0,29.67,WSW,251,0.0,2.0,78,0.00,,,0.00,,2013-06-28 09:22:00,
2013-06-28 04:33:00,66.0,59.0,29.67,WSW,250,0.0,0.0,79,0.00,,,0.00,,2013-06-28 09:33:00,
2013-06-28 04:42:00,66.0,60.0,29.67,WSW,250,0.0,0.0,80,0.00,,,0.00,,2013-06-28 09:42:00,
2013-06-28 04:52:00,66.0,60.0,29.67,WSW,250,0.0,0.0,80,0.00,,,0.00,,2013-06-28 09:52:00,
2013-06-28 05:02:00,66.0,60.0,29.67,WSW,250,0.0,3.0,81,0.00,,,0.00,,2013-06-28 10:02:00,
2013-06-28 05:12:00,65.0,59.0,29.67,WSW,250,0.0,0.0,81,0.00,,,0.00,,2013-06-28 10:12:00,
2013-06-28 05:33:00,65.0,59.0,29.67,WSW,250,0.0,0.0,82,0.00,,,0.00,,2013-06-28 10:33:00,
2013-06-28 05:42:00,65.0,60.0,29.67,WSW,250,0.0,0.0,83,0.00,,,0.00,,2013-06-28 10:42:00,
2013-06-28 05:52:00,65.0,60.0,29.67,WSW,250,0.0,0.0,83,0.00,,,0.00,,2013-06-28 10:52:00,
2013-06-28 06:02:00,64.0,59.0,29.67,WSW,250,0.0,0.0,83,0.00,,,0.00,,2013-06-28 11:02:00,
2013-06-28 06:11:00,64.0,59.0,29.67,WSW,250,0.0,1.0,84,0.00,,,0.00,,2013-06-28 11:11:00,
2013-06-28 06:22:00,64.0,59.0,29.67,WSW,250,0.0,1.0,84,0.00,,,0.00,,2013-06-28 11:22:00,
2013-06-28 06:34:00,65.0,60.0,29.67,West,265,0.0,0.0,84,0.00,,,0.00,,2013-06-28 11:34:00,
2013-06-28 06:43:00,65.0,60.0,29.68,West,263,0.0,3.0,84,0.00,,,0.00,,2013-06-28 11:43:00,
2013-06-28 06:53:00,65.0,60.0,29.68,West,263,0.0,3.0,84,0.00,,,0.00,,2013-06-28 11:53:00,
2013-06-28 07:02:00,66.0,61.0,29.67,West,261,0.0,4.0,83,0.00,,,0.00,,2013-06-28 12:02:00,
2013-06-28 07:12:00,67.0,62.0,29.68,WSW,254,0.0,3.0,83,0.00,,,0.00,,2013-06-28 12:12:00,
2013-06-28 07:22:00,67.0,62.0,29.68,WSW,254,0.0,3.0,83,0.00,,,0.00,,2013-06-28 12:22:00,
2013-06-28 07:34:00,68.0,62.0,29.68,West,265,1.0,6.0,81,0.00,,,0.00,,2013-06-28 12:34:00,
2013-06-28 07:43:00,69.0,62.0,29.68,West,262,3.0,7.0,79,0.00,,,0.00,,2013-06-28 12:43:00,
2013-06-28 07:52:00,69.0,62.0,29.68,West,262,3.0,7.0,79,0.00,,,0.00,,2013-06-28 12:52:00,
2013-06-28 08:01:00,70.0,62.0,29.68,NNW,331,4.0,5.0,75,0.00,,,0.00,,2013-06-28 13:01:00,
2013-06-28 08:11:00,71.0,62.0,29.69,NW,310,5.0,8.0,72,0.00,,,0.00,,2013-06-28 13:11:00,
2013-06-28 08:23:00,71.0,62.0,29.69,NW,310,5.0,8.0,72,0.00,,,0.00,,2013-06-28 13:23:00,
2013-06-28 08:33:00,72.0,62.0,29.68,NNW,335,2.0,7.0,72,0.00,,,0.00,,2013-06-28 13:33:00,
2013-06-28 08:43:00,72.0,62.0,29.68,NW,319,3.0,8.0,71,0.00,,,0.00,,2013-06-28 13:43:00,
2013-06-28 08:53:00,72.0,62.0,29.68,NW,319,3.0,8.0,71,0.00,,,0.00,,2013-06-28 13:53:00,
2013-06-28 09:02:00,73.0,63.0,29.68,NNW,330,3.0,9.0,70,0.00,,,0.00,,2013-06-28 14:02:00,
2013-06-28 09:12:00,74.0,63.0,29.68,NNW,329,4.0,9.0,69,0.00,,,0.00,,2013-06-28 14:12:00,
2013-06-28 09:33:00,74.0,62.0,29.68,NNW,342,5.0,9.0,67,0.00,,,0.00,,2013-06-28 14:33:00,
2013-06-28 09:44:00,75.0,63.0,29.68,NNW,338,4.0,8.0,66,0.00,,,0.00,,2013-06-28 14:44:00,
2013-06-28 09:53:00,75.0,63.0,29.68,NNW,338,4.0,8.0,66,0.00,,,0.00,,2013-06-28 14:53:00,
2013-06-28 10:02:00,75.0,62.0,29.67,NNW,342,4.0,11.0,65,0.00,,,0.00,,2013-06-28 15:02:00,
2013-06-28 10:11:00,76.0,62.0,29.67,NW,304,4.0,10.0,63,0.00,,,0.00,,2013-06-28 15:11:00,
2013-06-28 10:24:00,76.0,62.0,29.67,NW,304,4.0,10.0,63,0.00,,,0.00,,2013-06-28 15:24:00,
2013-06-28 10:34:00,77.0,63.0,29.67,NNW,330,5.0,9.0,62,0.00,,,0.00,,2013-06-28 15:34:00,
2013-06-28 10:43:00,77.0,63.0,29.67,West,267,5.0,12.0,62,0.00,,,0.00,,2013-06-28 15:43:00,
2013-06-28 10:52:00,77.0,63.0,29.67,West,267,5.0,12.0,62,0.00,,,0.00,,2013-06-28 15:52:00,
2013-06-28 11:01:00,78.0,62.0,29.67,NW,321,5.0,8.0,59,0.00,,,0.00,,2013-06-28 16:01:00,
2013-06-28 11:11:00,79.0,62.0,29.67,NNW,340,5.0,11.0,56,0.00,,,0.00,,2013-06-28 16:11:00,
2013-06-28 11:24:00,79.0,62.0,29.67,NNW,340,5.0,11.0,56,0.00,,,0.00,,2013-06-28 16:24:00,
2013-06-28 11:33:00,80.0,62.0,29.66,West,272,4.0,10.0,54,0.00,,,0.00,,2013-06-28 16:33:00,
2013-06-28 11:44:00,80.0,60.0,29.66,NNW,329,6.0,13.0,50,0.00,,,0.00,,2013-06-28 16:44:00,
2013-06-28 11:53:00,80.0,60.0,29.66,NNW,329,6.0,13.0,50,0.00,,,0.00,,2013-06-28 16:53:00,
2013-06-28 12:02:00,80.0,59.0,29.66,NNW,333,6.0,14.0,49,0.00,,,0.00,,2013-06-28 17:02:00,
2013-06-28 12:11:00,81.0,59.0,29.66,NNW,329,6.0,12.0,48,0.00,,,0.00,,2013-06-28 17:11:00,
2013-06-28 12:22:00,81.0,59.0,29.66,NNW,329,6.0,12.0,48,0.00,,,0.00,,2013-06-28 17:22:00,
2013-06-28 12:33:00,81.0,58.0,29.66,NNW,345,8.0,14.0,46,0.00,,,0.00,,2013-06-28 17:33:00,
2013-06-28 12:44:00,80.0,59.0,29.65,North,360,8.0,13.0,49,0.00,,,0.00,,2013-06-28 17:44:00,
2013-06-28 12:52:00,80.0,59.0,29.65,North,360,8.0,13.0,49,0.00,,,0.00,,2013-06-28 17:52:00,
2013-06-28 13:02:00,81.0,58.0,29.65,NW,315,9.0,15.0,46,0.00,,,0.00,,2013-06-28 18:02:00,
2013-06-28 13:11:00,82.0,60.0,29.64,WSW,256,6.0,16.0,48,0.00,,,0.00,,2013-06-28 18:11:00,
2013-06-28 13:22:00,82.0,60.0,29.64,WSW,256,6.0,16.0,48,0.00,,,0.00,,2013-06-28 18:22:00,
2013-06-28 13:33:00,82.0,59.0,29.64,NW,323,7.0,14.0,46,0.00,,,0.00,,2013-06-28 18:33:00,
2013-06-28 13:43:00,82.0,60.0,29.64,West,263,8.0,15.0,47,0.00,,,0.00,,2013-06-28 18:43:00,
2013-06-28 13:52:00,82.0,60.0,29.64,West,263,8.0,15.0,47,0.00,,,0.00,,2013-06-28 18:52:00,
2013-06-28 14:01:00,81.0,59.0,29.63,West,267,5.0,14.0,48,0.00,,,0.00,,2013-06-28 19:01:00,
2013-06-28 14:11:00,81.0,60.0,29.62,NNW,342,9.0,16.0,49,0.00,,,0.00,,2013-06-28 19:11:00,
2013-06-28 14:22:00,81.0,60.0,29.62,NNW,342,9.0,16.0,49,0.00,,,0.00,,2013-06-28 19:22:00,
2013-06-28 14:33:00,80.0,60.0,29.62,North,355,5.0,15.0,50,0.00,,,0.00,,2013-06-28 19:33:00,
2013-06-28 14:43:00,81.0,61.0,29.61,NNW,331,8.0,15.0,50,0.00,,,0.00,,2013-06-28 19:43:00,
2013-06-28 14:53:00,81.0,61.0,29.61,NNW,331,8.0,15.0,50,0.00,,,0.00,,2013-06-28 19:53:00,
2013-06-28 15:02:00,80.0,59.0,29.61,NNW,342,8.0,19.0,49,0.00,,,0.00,,2013-06-28 20:02:00,
2013-06-28 15:11:00,79.0,59.0,29.60,NNW,344,7.0,15.0,51,0.00,,,0.00,,2013-06-28 20:11:00,
2013-06-28 15:22:00,79.0,59.0,29.60,NNW,344,7.0,15.0,51,0.00,,,0.00,,2013-06-28 20:22:00,
2013-06-28 15:33:00,77.0,62.0,29.60,WNW,299,6.0,13.0,59,0.00,,,0.00,,2013-06-28 20:33:00,
2013-06-28 15:43:00,80.0,61.0,29.59,NNW,331,6.0,13.0,52,0.00,,,0.00,,2013-06-28 20:43:00,
2013-06-28 15:52:00,80.0,61.0,29.59,NNW,331,6.0,13.0,52,0.00,,,0.00,,2013-06-28 20:52:00,
2013-06-28 16:02:00,79.0,60.0,29.60,NNW,336,8.0,13.0,53,0.00,,,0.00,,2013-06-28 21:02:00,
2013-06-28 16:11:00,79.0,61.0,29.60,NW,325,8.0,15.0,54,0.00,,,0.00,,2013-06-28 21:11:00,
2013-06-28 16:23:00,79.0,61.0,29.60,NW,325,8.0,15.0,54,0.00,,,0.00,,2013-06-28 21:23:00,
2013-06-28 16:34:00,78.0,61.0,29.60,NNW,345,7.0,13.0,55,0.00,,,0.00,,2013-06-28 21:34:00,
2013-06-28 16:53:00,78.0,61.0,29.60,NW,304,5.0,13.0,56,0.00,,,0.00,,2013-06-28 21:53:00,
2013-06-28 17:01:00,79.0,61.0,29.59,NW,324,8.0,16.0,54,0.00,,,0.00,,2013-06-28 22:01:00,
2013-06-28 17:11:00,79.0,60.0,29.59,WNW,293,11.0,18.0,52,0.00,,,0.00,,2013-06-28 22:11:00,
2013-06-28 17:22:00,79.0,60.0,29.59,WNW,293,11.0,18.0,52,0.00,,,0.00,,2013-06-28 22:22:00,
2013-06-28 17:34:00,79.0,60.0,29.59,NW,325,8.0,20.0,52,0.00,,,0.00,,2013-06-28 22:34:00,
2013-06-28 17:43:00,79.0,61.0,29.59,NNW,344,7.0,14.0,54,0.00,,,0.00,,2013-06-28 22:43:00,
2013-06-28 17:52:00,79.0,61.0,29.59,NNW,344,7.0,14.0,54,0.00,,,0.00,,2013-06-28 22:52:00,
2013-06-28 18:02:00,79.0,61.0,29.59,NNW,344,7.0,14.0,54,0.00,,,0.00,,2013-06-28 23:02:00,
2013-06-28 18:11:00,78.0,62.0,29.59,North,351,7.0,14.0,57,0.00,,,0.00,,2013-06-28 23:11:00,
2013-06-28 18:23:00,78.0,62.0,29.59,North,351,7.0,14.0,57,0.00,,,0.00,,2013-06-28 23:23:00,
2013-06-28 18:34:00,78.0,62.0,29.59,North,355,9.0,14.0,57,0.00,,,0.00,,2013-06-28 23:34:00,
2013-06-28 18:43:00,76.0,63.0,29.60,NNW,338,9.0,16.0,64,0.00,,,0.00,,2013-06-28 23:43:00,
2013-06-28 18:53:00,76.0,63.0,29.60,NNW,338,9.0,16.0,64,0.00,,,0.00,,2013-06-28 23:53:00,
2013-06-28 19:33:00,74.0,62.0,29.60,NNW,331,5.0,10.0,66,0.00,,,0.00,,2013-06-29 00:33:00,
2013-06-28 19:42:00,74.0,62.0,29.60,NNW,331,5.0,10.0,66,0.00,,,0.00,,2013-06-29 00:42:00,
2013-06-28 19:52:00,74.0,62.0,29.60,NNW,331,5.0,10.0,66,0.00,,,0.00,,2013-06-29 00:52:00,
2013-06-28 20:01:00,74.0,62.0,29.60,NNW,331,5.0,10.0,66,0.00,,,0.00,,2013-06-29 01:01:00,
2013-06-28 20:11:00,74.0,62.0,29.60,NNW,331,5.0,10.0,66,0.00,,,0.00,,2013-06-29 01:11:00,
2013-06-28 21:31:00,71.0,62.0,29.61,NW,325,1.0,4.0,73,0.00,,,0.00,,2013-06-29 02:31:00,
2013-06-28 21:41:00,71.0,62.0,29.61,NW,325,1.0,4.0,73,0.00,,,0.00,,2013-06-29 02:41:00,
2013-06-28 21:51:00,71.0,62.0,29.61,NW,325,1.0,4.0,73,0.00,,,0.00,,2013-06-29 02:51:00,
2013-06-28 22:01:00,71.0,62.0,29.61,NW,325,1.0,4.0,73,0.00,,,0.00,,2013-06-29 03:01:00,
2013-06-28 22:11:00,71.0,62.0,29.61,NW,325,1.0,4.0,73,0.00,,,0.00,,2013-06-29 03:11:00,